リニア彗星

222P/LINEAR (2009)

English version
Home page
Updated on March 17, 2010

---------------------------------------------------------------------

・ プロフィール

符号 222P/2009 MB9
再発見日 2009年6月29日
再発見光度 18.3等
再発見者 R. H. McNaught (Siding Spring Survey)

・ 写真集

・ 軌道要素

Epoch 2009 Sept. 6.0 TT = JDT 2455080.5
T 2009 Sept. 1.09936 TT                                 MPC
q   0.7801997            (2000.0)            P               Q
n   0.20393034     Peri.  345.43464     +0.99144313     +0.13006476
a   2.8585655      Node     7.11999     -0.10898899     +0.87164881
e   0.7270660      Incl.    5.14782     -0.07184654     +0.47255847
P   4.83

・ 星図

・ 光度変化

        m1 = 17.5 + 5 logΔ + 20.0 log r(t - 10)

---------------------------------------------------------------------

軌道要素はM.P.E.C. 2009-P09に掲載されたものです。
星図はステラナビゲータ Ver.8 (アストロアーツ) で作成したものです。
光度グラフはComet for Windowsで作成したものです。

---------------------------------------------------------------------

Copyright(C) Seiichi Yoshida (comet@aerith.net). All rights reserved.